Date,TemperatureHighF,TemperatureAvgF,TemperatureLowF,DewpointHighF,DewpointAvgF,DewpointLowF,HumidityHigh,HumidityAvg,HumidityLow,PressureMaxIn,PressureMinIn,WindSpeedMaxMPH,WindSpeedAvgMPH,GustSpeedMaxMPH,PrecipitationSumIn
2013-1-1,56,51,46,43,42,40,87,71,56,30.25,30.14,10,4,15,0.00
2013-1-2,61,50,43,52,42,39,94,76,47,30.43,30.22,5,1,8,0.00
2013-1-3,64,52,45,48,41,28,93,69,43,30.48,30.40,6,2,9,0.00
2013-1-4,61,53,45,35,29,24,51,41,26,30.42,30.13,6,2,10,0.00
2013-1-5,59,52,46,32,29,27,51,42,35,30.12,29.85,9,3,28,0.00
2013-1-6,50,44,39,38,32,26,87,62,47,29.98,29.76,13,6,25,0.21
2013-1-7,53,44,36,26,23,17,62,44,30,30.07,29.87,17,5,23,0.00
2013-1-8,41,35,33,31,24,15,87,64,35,30.27,30.07,11,4,18,0.04
2013-1-9,49,39,33,25,21,17,62,50,39,30.30,30.21,11,2,18,0.00
2013-1-10,52,44,34,32,25,18,58,48,33,30.26,30.09,6,2,9,0.00
2013-1-11,62,54,46,52,44,32,97,71,48,30.10,29.86,9,2,15,0.08
2013-1-12,62,51,45,50,40,36,92,68,44,30.16,29.88,10,2,19,0.00
2013-1-13,62,50,42,43,38,34,85,65,39,30.33,30.10,7,2,10,0.00
2013-1-14,57,51,46,46,43,39,86,74,63,30.36,30.27,8,2,13,0.00
2013-1-15,62,54,48,52,46,41,91,74,49,30.36,30.08,12,4,17,0.00
2013-1-16,59,54,47,51,44,36,98,69,52,30.11,29.72,19,6,29,1.03
2013-1-17,59,53,45,47,41,35,77,63,47,29.87,29.74,13,4,23,0.00
2013-1-18,57,52,45,51,43,33,92,70,51,29.74,29.51,14,6,26,0.16
2013-1-19,56,49,42,38,33,29,76,56,39,29.97,29.61,16,5,24,0.00
2013-1-20,67,55,46,50,42,35,87,63,41,30.05,29.91,6,2,9,0.00
2013-1-21,65,57,51,54,48,40,95,73,44,29.99,29.71,13,4,23,0.04
2013-1-22,64,56,50,51,44,38,85,66,40,29.87,29.71,8,2,15,0.00
2013-1-23,60,54,50,44,36,32,72,52,37,30.06,29.84,12,4,19,0.00
2013-1-24,63,53,46,52,44,38,95,72,48,30.06,29.65,16,5,29,0.38
2013-1-25,60,50,43,49,42,37,94,76,46,29.74,29.54,14,4,28,0.58
2013-1-26,60,49,46,49,43,40,93,79,56,29.73,29.49,8,3,13,0.41
2013-1-27,56,47,44,41,37,33,83,68,47,30.00,29.73,9,4,15,0.00
2013-1-28,56,48,44,41,36,33,79,64,47,30.07,29.96,8,2,15,0.00
2013-1-29,50,46,43,40,36,29,82,67,54,30.19,30.03,7,3,11,0.00
2013-1-30,59,49,41,35,28,1,76,48,10,30.19,29.98,7,2,9,0.00
2013-1-31,61,52,43,39,32,24,59,47,38,30.06,29.89,10,3,16,0.00
2013-2-1,51,50,49,39,37,35,64,61,57,30.03,29.97,4,2,5,0.00
2013-2-2,66,55,48,49,42,35,83,63,42,30.00,29.82,9,3,13,0.00
2013-2-3,68,60,56,54,48,42,91,65,43,30.02,29.82,14,6,28,0.00
2013-2-4,67,59,54,55,50,42,93,76,46,30.08,29.94,10,3,14,0.00
2013-2-5,66,57,49,54,46,38,91,69,40,30.05,29.90,8,2,15,0.00
2013-2-6,64,54,46,50,43,38,87,68,44,29.94,29.70,7,2,11,0.00
2013-2-7,61,54,49,49,42,39,91,64,45,29.81,29.59,20,6,34,0.29
2013-2-8,57,51,46,43,36,32,75,58,44,29.82,29.60,10,3,17,0.00
2013-2-9,60,50,42,40,35,30,79,57,36,29.96,29.82,9,3,16,0.00
2013-2-10,60,51,44,42,33,29,69,51,35,29.96,29.83,9,2,15,0.00
2013-2-11,56,48,43,35,29,25,71,49,36,30.13,29.82,15,5,23,0.00
2013-2-12,63,50,40,44,35,26,73,57,35,30.14,30.04,10,2,14,0.00
2013-2-13,54,50,44,49,44,39,96,79,58,30.06,29.96,13,4,28,0.65
2013-2-14,52,48,46,46,43,39,93,84,66,30.00,29.73,11,2,16,0.54
2013-2-15,52,47,43,45,41,35,96,82,58,30.10,29.73,9,3,17,0.34
2013-2-16,56,47,42,43,40,38,89,77,54,30.13,30.08,5,2,9,0.00
2013-3-9,56,55,54,47,45,44,72,69,67,29.81,29.80,3,2,6,0.00
2013-3-10,74,61,52,48,44,37,81,55,31,29.81,29.69,6,3,12,0.00
2013-3-11,76,63,53,53,46,38,85,58,36,29.77,29.56,10,3,16,0.00
2013-3-12,70,60,53,44,37,34,58,43,28,29.72,29.57,16,5,22,0.00
2013-3-13,73,59,48,54,41,37,89,53,31,29.76,29.66,9,3,13,0.00
2013-3-14,70,61,55,53,44,33,89,55,36,29.74,29.31,17,7,23,0.00
2013-3-15,64,55,48,39,34,30,55,45,35,29.64,29.38,17,6,24,0.00
2013-3-16,59,48,42,37,31,28,65,51,36,30.01,29.61,11,4,18,0.00
2013-3-17,61,47,41,34,29,26,67,51,35,30.19,29.98,10,4,15,0.00
2013-3-18,59,49,41,47,38,30,92,67,42,30.20,29.97,6,3,10,0.00
2013-3-19,70,58,49,52,46,42,90,69,40,29.97,29.75,9,3,15,0.00
2013-3-20,76,61,49,52,46,38,91,63,35,29.89,29.83,8,3,13,0.00
2013-3-21,67,60,55,54,50,36,93,71,44,29.83,29.52,13,5,21,0.00
2013-3-22,65,57,49,36,31,20,57,38,26,29.75,29.53,19,10,30,0.00
2013-3-23,71,56,45,32,4,-14,52,18,3,29.97,29.72,10,4,13,0.00
2013-3-24,73,58,46,48,40,31,78,54,35,30.00,29.88,10,4,17,0.00
2013-3-25,66,58,53,54,48,41,91,70,49,29.96,29.59,15,6,21,0.00
2013-3-26,69,60,51,54,42,36,91,54,36,29.65,29.49,17,6,24,0.00
2013-3-27,71,60,51,45,42,36,66,51,37,29.83,29.65,9,3,17,0.00
2013-3-28,74,58,52,52,46,40,91,65,41,30.05,29.84,8,2,12,0.04
2013-3-29,75,60,50,54,48,41,97,69,36,30.07,29.95,6,2,9,0.00
2013-3-30,62,58,55,49,45,41,78,63,48,29.99,29.83,8,2,11,0.00
2013-3-31,76,64,57,52,47,40,77,56,38,29.86,29.70,9,4,15,0.00
2013-4-1,75,63,51,55,34,-14,93,45,3,29.86,29.75,16,5,26,0.00
2013-4-2,78,64,53,48,41,35,64,45,30,29.88,29.58,13,4,20,0.00
2013-4-3,71,63,57,56,42,32,91,51,25,29.68,29.48,17,7,28,0.00
2013-4-4,57,54,54,40,38,38,57,55,49,29.72,29.65,13,8,17,0.00
2013-4-5,54,54,54,38,38,38,55,55,55,29.72,29.72,9,9,9,0.00
2013-4-6,54,54,54,38,38,38,55,55,55,29.72,29.72,9,9,9,0.00
2013-4-7,54,54,54,38,38,38,55,55,55,29.72,29.72,9,9,9,0.00
2013-4-8,54,54,54,38,38,38,55,55,55,29.72,29.72,9,9,9,0.00
2013-4-9,56,54,54,46,39,38,71,56,55,29.99,29.72,9,8,9,0.00
2013-4-10,79,63,50,50,41,33,81,49,21,29.99,29.86,6,2,12,0.00
2013-4-11,82,64,51,45,39,28,67,44,15,30.05,29.90,9,4,15,0.00
2013-4-12,82,67,53,47,41,32,66,42,24,30.07,29.96,9,2,11,0.00
2013-4-13,60,58,57,39,38,33,50,47,37,30.07,30.04,3,2,5,0.00
2013-4-14,87,66,57,46,42,36,56,44,20,30.14,29.98,17,5,27,0.00
2013-4-15,65,57,52,46,39,34,74,52,34,30.11,29.94,16,6,24,0.00
2013-4-16,66,56,49,45,39,34,84,56,34,30.08,29.97,15,6,27,0.08
2013-4-17,69,58,51,35,21,-12,52,30,4,30.11,29.97,20,8,34,0.00
2013-4-18,66,58,52,34,19,-12,46,27,4,30.08,29.97,18,7,29,0.00
2013-4-19,64,55,48,44,32,27,64,43,35,30.00,29.88,12,4,17,0.00
2013-4-20,68,56,46,42,35,30,63,47,33,30.05,29.91,10,4,19,0.00
2013-4-21,76,61,47,41,31,2,60,36,7,30.06,29.89,11,3,17,0.00
2013-4-22,75,59,52,40,35,31,50,41,21,30.03,29.96,6,2,11,0.00
2013-4-28,90,74,57,48,18,-19,48,21,2,30.04,29.92,6,2,11,0.00
2013-4-29,93,75,60,39,12,-20,31,15,2,30.11,30.01,8,2,13,0.00
2013-4-30,89,78,66,35,0,-20,25,7,2,30.09,30.00,11,4,18,0.00
2013-5-1,91,78,69,42,24,-19,32,18,2,30.05,29.91,15,6,24,0.00
2013-5-2,87,78,70,40,10,-20,32,12,2,29.93,29.86,14,8,23,0.00
2013-5-3,94,78,67,50,39,-9,43,28,2,29.91,29.79,11,4,20,0.00
2013-5-4,94,78,64,52,44,18,48,32,7,29.96,29.84,8,2,11,0.00
2013-5-5,95,79,65,50,44,31,44,31,11,30.05,29.92,7,2,11,0.00
2013-5-6,90,77,68,52,45,38,49,34,18,30.09,29.94,15,4,23,0.00
2013-5-7,87,76,66,50,44,40,57,33,21,29.99,29.85,10,4,18,0.00
2013-5-8,70,68,63,58,53,43,70,59,40,29.91,29.85,6,2,9,0.00
2013-5-9,70,70,70,57,57,57,63,63,63,29.87,29.87,2,2,2,0.00
2013-5-10,70,70,70,57,57,57,63,63,63,29.87,29.87,2,2,2,0.00
2013-5-11,70,70,70,57,57,57,63,63,63,29.87,29.87,2,2,2,0.00
2013-5-12,70,70,70,57,57,57,63,63,63,29.87,29.87,2,2,2,0.00
2013-5-13,70,67,58,57,56,50,81,67,63,29.87,29.64,9,2,14,0.13
2013-5-14,74,62,57,54,49,43,89,63,40,29.86,29.65,13,6,20,0.15
2013-5-15,86,70,57,52,47,39,73,47,29,29.91,29.79,8,2,15,0.00
2013-5-16,86,70,58,56,49,40,74,50,27,29.92,29.84,7,2,13,0.00
2013-5-17,89,71,61,57,50,46,68,49,28,29.93,29.81,10,3,15,0.00
2013-5-18,97,79,63,60,50,-6,69,42,2,30.02,29.88,11,2,17,0.00
2013-5-19,98,79,69,53,49,39,52,39,14,29.99,29.88,9,3,11,0.00
2013-5-20,100,83,69,57,50,46,49,35,18,29.96,29.84,7,2,11,0.00
2013-5-21,101,82,68,55,43,-6,52,31,2,29.96,29.85,9,3,13,0.00
2013-5-22,96,79,66,55,38,-14,51,30,2,29.90,29.71,8,3,13,0.00
2013-5-23,88,78,68,51,44,37,48,32,20,29.75,29.57,14,6,20,0.00
2013-5-24,82,71,63,48,43,39,47,38,29,29.91,29.70,13,6,20,0.00
2013-5-25,84,73,62,46,42,37,46,34,20,29.97,29.85,11,5,22,0.00
2013-5-26,89,75,61,49,31,-12,58,29,2,29.97,29.79,12,4,17,0.00
2013-5-27,89,74,60,43,25,-18,40,23,2,29.94,29.85,11,4,17,0.00
2013-5-28,89,72,58,58,44,37,57,38,25,29.95,29.78,9,3,15,0.00
2013-5-29,93,78,68,54,46,31,56,34,22,29.78,29.54,14,6,23,0.00
2013-5-30,95,78,67,58,41,-8,67,35,2,29.72,29.65,9,4,13,0.00
2013-5-31,84,74,66,48,39,10,48,30,7,29.79,29.64,16,6,23,0.00
2013-6-1,82,70,58,55,39,12,72,34,7,29.84,29.75,10,3,15,0.00
2013-6-2,82,70,61,57,47,36,85,48,25,29.82,29.67,14,5,25,0.04
2013-6-3,91,74,60,49,42,-4,61,37,3,29.88,29.80,7,3,12,0.00
2013-6-4,89,76,64,52,44,-3,64,37,3,29.91,29.79,9,4,15,0.00
2013-6-5,90,76,62,51,36,-12,56,31,2,29.96,29.85,8,3,14,0.00
2013-6-6,78,73,62,59,54,51,75,52,44,29.98,29.92,4,0,4,0.00
2013-6-7,78,78,78,54,54,54,44,44,44,29.95,29.95,0,0,1,0.00
2013-6-8,82,76,67,55,53,46,58,45,31,29.95,29.80,6,1,10,0.00
2013-6-9,91,76,62,56,52,48,71,46,28,29.96,29.88,9,3,18,0.00
2013-6-10,96,81,65,55,50,43,57,37,18,29.97,29.79,8,2,15,0.00
2013-6-11,97,80,67,60,49,32,73,39,12,29.85,29.60,13,4,20,0.00
2013-6-12,94,72,57,67,51,41,94,51,20,29.80,29.63,11,3,17,1.67
2013-6-13,79,68,63,59,53,49,87,60,41,29.85,29.76,13,4,17,0.00
2013-6-14,81,70,64,60,54,51,77,58,39,29.94,29.81,11,5,18,0.00
2013-6-15,93,77,64,57,53,50,69,45,26,29.96,29.87,9,2,15,0.00
2013-6-16,98,81,67,62,52,4,66,40,3,29.99,29.89,9,3,14,0.00
2013-6-17,98,84,69,59,51,39,66,35,20,30.00,29.91,10,3,15,0.00
2013-6-18,94,84,75,56,50,44,42,32,22,30.01,29.90,16,6,28,0.00
2013-6-19,92,84,77,54,48,42,34,29,19,29.95,29.84,16,7,32,0.00
2013-6-20,95,84,78,50,46,42,38,27,18,29.97,29.79,18,9,30,0.00
2013-6-21,90,81,74,53,48,42,38,31,22,29.98,29.88,18,7,29,0.00
2013-6-22,98,83,71,51,25,-14,40,20,2,29.93,29.81,15,4,25,0.00
2013-6-23,101,86,72,53,45,25,40,25,7,29.87,29.77,13,3,20,0.00
2013-6-24,104,86,72,54,45,-2,44,28,2,29.84,29.71,9,2,14,0.00
2013-6-25,104,89,74,56,43,-4,41,25,2,29.83,29.73,6,3,13,0.00
2013-6-26,102,89,72,61,54,47,42,32,19,29.83,29.77,9,3,15,0.00
2013-6-27,96,96,96,60,60,60,30,30,30,29.80,29.80,4,4,4,0.00
2013-6-28,96,96,96,60,60,60,30,30,30,29.80,29.80,4,4,4,0.00
2013-6-29,96,96,96,60,60,60,30,30,30,29.80,29.80,4,4,4,0.00
2013-6-30,96,96,96,60,60,60,30,30,30,29.80,29.80,4,4,4,0.00
2013-7-1,96,77,65,60,45,9,55,36,6,30.03,29.80,12,4,17,0.00
2013-7-2,95,80,66,58,49,40,66,37,18,30.06,29.90,10,3,17,0.00
2013-7-3,80,80,80,46,46,46,30,30,30,29.95,29.95,0,0,1,0.00
2013-7-4,80,80,80,46,46,46,30,30,30,29.95,29.95,0,0,1,0.00
2013-7-5,80,80,80,46,46,46,30,30,30,29.95,29.95,0,0,1,0.00
2013-7-6,84,80,76,52,47,46,43,31,30,29.95,29.82,11,1,20,0.00
2013-7-7,89,81,74,58,53,48,56,38,30,29.95,29.80,16,9,28,0.00
2013-7-8,93,83,75,53,49,45,40,31,21,30.00,29.89,17,8,30,0.00
2013-7-9,94,84,78,55,50,45,41,31,24,29.95,29.82,19,9,30,0.00
2013-7-10,93,82,74,56,52,44,52,37,24,29.89,29.73,19,8,29,0.00
2013-7-11,95,81,73,56,50,43,45,35,23,29.86,29.74,11,4,18,0.00
2013-7-12,99,86,71,57,51,46,50,32,18,29.92,29.81,9,3,15,0.00
2013-7-13,97,84,75,57,52,46,44,35,27,29.92,29.84,11,5,15,0.00
2013-7-14,96,83,73,56,50,46,42,33,22,29.93,29.83,11,4,17,0.00
2013-7-15,95,82,71,54,47,43,38,30,21,29.93,29.81,13,4,20,0.00
2013-7-16,93,82,72,54,48,42,39,31,22,29.93,29.84,13,4,18,0.00
2013-7-17,82,75,70,58,52,43,62,44,32,29.99,29.92,17,8,27,0.00
2013-7-18,86,77,71,53,48,41,50,36,23,30.02,29.91,19,8,32,0.00
2013-7-19,89,79,71,51,44,37,42,30,20,30.02,29.85,14,5,26,0.00
2013-7-20,91,80,69,53,45,35,48,31,19,29.90,29.78,13,4,20,0.00
2013-7-21,95,84,72,52,46,42,38,27,19,29.89,29.78,13,5,22,0.00
2013-7-22,86,77,72,60,52,43,65,43,28,29.90,29.81,16,8,26,0.00
2013-7-23,90,79,68,55,45,0,56,34,4,29.90,29.81,15,6,23,0.00
2013-8-15,92,89,87,51,47,42,29,24,18,29.82,29.78,16,10,27,0.00
2013-8-17,88,80,73,61,57,52,66,46,34,29.92,29.81,19,11,30,0.00
2013-8-18,93,82,72,53,46,39,42,29,18,29.96,29.86,16,6,28,0.00
2013-8-19,94,82,71,54,47,42,39,30,19,29.95,29.84,16,5,30,0.00
2013-8-20,94,83,74,53,43,-8,38,26,2,29.92,29.78,16,6,21,0.00
2013-8-21,89,81,75,54,49,43,46,33,29,29.90,29.80,16,8,26,0.00
2013-8-22,88,78,71,59,53,49,57,42,31,29.90,29.79,17,7,26,0.00
2013-8-23,92,80,72,57,47,35,54,33,19,29.93,29.84,13,4,18,0.00
2013-8-24,96,83,70,50,32,-9,35,22,2,29.93,29.84,10,3,12,0.00
2013-8-25,98,84,71,55,36,-7,45,25,2,29.90,29.77,9,2,14,0.00
2013-8-26,101,85,71,56,44,-2,46,27,2,29.92,29.80,9,2,13,0.00
2013-8-27,104,87,73,57,48,-2,46,29,2,29.92,29.76,9,2,12,0.00
2013-8-28,105,89,76,57,46,-1,45,27,2,29.88,29.77,9,3,12,0.00
2013-8-29,101,86,75,57,52,45,48,34,16,29.90,29.80,10,3,16,0.00
2013-8-30,95,82,73,64,54,46,72,41,21,29.96,29.83,11,5,17,0.00
2013-8-31,91,79,72,62,50,42,69,38,23,29.96,29.89,12,4,18,0.00
2013-9-1,90,78,70,58,45,31,65,33,19,30.07,29.93,11,4,15,0.00
2013-9-2,92,78,68,56,35,-11,58,26,2,30.11,29.96,13,3,19,0.00
2013-9-3,97,80,68,57,53,50,62,41,23,30.09,29.93,9,2,13,0.00
2013-9-7,72,70,69,54,50,48,58,50,43,30.03,30.00,2,0,3,0.00
2013-9-8,91,78,68,56,48,35,64,37,24,30.08,29.99,11,4,16,0.00
2013-9-9,87,79,68,49,42,36,38,27,20,30.16,30.05,11,4,18,0.00
2013-9-10,95,84,67,55,41,-7,51,28,2,30.09,29.96,6,2,11,0.00
2013-9-11,99,83,68,57,51,42,52,35,22,30.05,29.90,6,2,12,0.00
2013-9-12,99,84,72,58,53,48,47,36,22,29.97,29.89,7,2,11,0.00
2013-9-13,97,82,72,61,56,50,62,42,23,29.97,29.89,10,3,13,0.00
2013-9-14,91,78,68,54,45,-11,51,36,2,30.04,29.92,10,3,17,0.00
2013-9-15,90,75,65,56,36,-13,64,36,2,30.03,29.85,8,3,16,0.00
2013-9-16,87,74,67,58,52,46,68,48,32,29.91,29.62,12,3,19,0.00
2013-9-17,89,76,65,58,52,47,70,46,28,29.72,29.62,11,3,13,0.00
2013-9-18,87,77,67,57,50,37,62,41,20,29.69,29.55,13,5,21,0.00
2013-9-19,93,78,66,56,51,44,59,41,22,29.78,29.63,6,2,11,0.00
2013-9-20,91,76,67,57,54,49,67,49,27,29.97,29.75,9,2,12,0.00
2013-9-21,84,72,65,61,54,49,85,57,35,30.04,29.94,8,2,13,0.00
2013-9-22,79,69,64,53,46,43,63,45,32,30.08,29.99,11,4,17,0.00
2013-9-23,80,68,61,49,43,38,60,41,24,30.06,29.87,9,4,17,0.00
2013-9-24,86,72,60,52,46,40,61,43,23,29.97,29.85,7,3,11,0.00
2013-9-25,89,74,62,62,52,44,78,50,23,30.03,29.93,8,2,10,0.00
2013-9-26,88,75,65,67,56,45,91,57,24,30.06,29.86,8,3,13,0.00
2013-9-27,92,75,64,60,52,42,71,49,20,29.94,29.84,9,3,13,0.00
2013-9-28,92,75,63,60,53,43,77,50,19,29.94,29.84,8,2,12,0.00
2013-9-29,92,77,66,59,53,47,67,46,28,29.97,29.84,7,2,9,0.00
2013-9-30,90,76,65,66,59,47,91,58,30,29.91,29.67,8,3,14,0.00
2013-10-1,81,72,64,67,58,45,93,66,34,29.69,29.52,16,4,28,0.28
2013-10-2,77,68,60,56,49,46,71,53,38,29.95,29.64,11,5,17,0.00
2013-10-3,68,59,56,50,44,38,75,57,41,30.26,29.92,11,4,17,0.09
2013-10-4,65,56,53,42,38,36,61,53,43,30.33,30.20,7,3,17,0.00
2013-10-5,68,57,50,39,36,34,61,47,34,30.33,30.23,9,4,14,0.00
2013-10-6,74,58,48,41,38,33,68,49,31,30.33,30.21,10,2,15,0.00
2013-10-7,73,61,50,43,40,36,72,48,28,30.33,30.23,9,3,15,0.00
2013-10-8,78,64,55,47,43,39,68,49,27,30.32,30.19,9,3,15,0.00
2013-10-9,82,66,54,52,43,-16,69,48,2,30.29,30.13,6,2,10,0.00
2013-10-10,70,64,59,60,56,50,89,75,66,30.16,30.03,7,2,12,0.00
2013-10-11,87,72,61,62,54,48,83,59,29,30.21,30.07,6,2,9,0.00
2013-10-12,90,74,62,64,58,52,87,62,30,30.22,30.12,6,2,9,0.00
2013-10-13,86,72,63,62,55,46,92,61,28,30.19,30.10,10,3,17,0.00
2013-10-14,88,72,61,55,49,42,73,48,21,30.16,30.04,6,2,13,0.00
2013-10-15,84,71,61,60,54,49,78,58,35,30.16,29.94,8,2,10,0.00
2013-10-16,71,67,63,64,58,54,89,74,61,29.97,29.58,11,2,17,0.08
2013-10-17,71,64,58,64,46,35,93,54,31,29.74,29.52,14,6,25,0.04
2013-10-18,78,66,59,51,42,38,68,42,25,30.04,29.74,15,5,23,0.00
2013-10-19,75,65,57,48,38,31,61,38,21,30.38,30.01,11,4,17,0.00
2013-10-20,76,63,55,46,40,35,67,45,26,30.42,30.32,9,2,13,0.00
2013-10-21,79,63,51,51,41,34,72,46,24,30.36,30.17,5,2,9,0.00
2013-10-22,82,66,54,55,47,-17,88,59,2,30.23,30.07,13,2,17,0.00
2013-10-23,81,68,57,50,43,36,73,41,30,30.22,30.10,13,4,23,0.00
2013-10-24,75,67,62,46,42,35,56,41,32,30.22,30.12,16,6,20,0.00
2013-10-25,75,65,58,47,40,31,65,41,30,30.20,30.08,14,7,19,0.00
2013-10-26,76,65,53,41,25,-12,46,26,4,30.20,30.11,14,5,20,0.00
2013-10-27,83,67,58,54,25,-17,77,31,2,30.16,30.04,11,3,15,0.00
2013-10-28,79,65,54,56,47,38,81,55,30,30.11,30.01,6,2,9,0.00
2013-10-29,82,66,54,52,46,38,82,52,22,30.11,29.93,6,2,11,0.00
2013-10-30,82,66,56,55,47,34,84,54,20,30.10,29.98,7,2,13,0.00
2013-10-31,78,68,60,46,42,36,50,38,32,30.16,30.03,10,4,18,0.00
2013-11-1,70,64,59,48,44,38,67,49,38,30.19,30.12,13,5,21,0.00
2013-11-3,59,59,59,54,54,53,83,82,82,30.07,30.04,2,1,3,0.00
2013-11-4,81,66,58,61,54,43,90,68,33,30.07,29.92,4,2,7,0.00
2013-11-5,77,67,60,59,54,45,92,67,36,29.95,29.70,12,4,19,0.00
2013-11-6,66,60,57,60,55,50,94,84,59,29.76,29.58,14,3,19,1.07
2013-11-7,68,61,53,58,44,28,92,58,23,30.11,29.68,15,5,26,0.04
2013-11-8,76,62,52,47,41,31,73,48,29,30.19,30.05,6,2,7,0.00
2013-11-9,77,62,52,54,46,41,82,59,32,30.14,29.98,6,2,9,0.00
2013-11-10,75,63,55,56,51,46,92,69,41,30.02,29.86,6,2,9,0.00
2013-11-11,75,64,58,69,59,54,97,85,54,29.98,29.81,9,4,20,0.25
2013-11-12,70,64,60,64,60,46,97,86,54,30.10,29.94,12,5,21,0.25
2013-11-13,72,62,57,54,48,43,82,62,43,30.11,29.94,8,3,15,0.00
2013-11-14,64,59,55,54,50,45,90,73,54,29.99,29.82,11,5,20,0.41
2013-11-15,63,58,55,51,47,44,81,67,54,30.11,29.93,14,7,22,0.00
2013-11-16,61,56,54,48,43,37,73,61,51,30.20,30.08,16,7,26,0.00
2013-11-17,61,55,52,42,37,35,66,52,40,30.21,30.10,13,6,23,0.00
2013-11-18,63,55,51,40,37,36,61,51,40,30.18,30.07,12,5,19,0.00
2013-11-19,68,57,49,50,42,36,75,58,38,30.18,30.02,7,2,10,0.00
2013-11-20,71,62,57,63,55,50,96,81,56,30.05,29.84,9,4,13,0.61
2013-11-21,75,62,55,56,50,44,93,67,42,29.92,29.76,9,3,17,0.25
2013-11-22,68,58,54,56,48,40,95,71,40,29.84,29.70,7,2,12,0.00
2013-11-23,71,59,52,53,49,45,86,69,46,29.84,29.70,12,3,19,0.00
2013-11-24,63,57,54,57,52,44,93,82,64,29.84,29.68,11,3,15,0.87
2013-11-25,67,57,51,51,44,38,89,64,36,29.78,29.70,6,2,10,0.00
2013-11-26,69,56,50,51,44,37,80,65,35,29.84,29.66,9,2,12,0.00
2013-11-27,62,54,46,48,36,26,80,55,27,30.25,29.78,11,3,19,0.00
2013-11-28,58,51,43,36,31,24,66,46,36,30.33,30.20,9,4,15,0.00
2013-11-29,63,51,42,40,32,25,72,51,36,30.25,30.09,4,2,6,0.00
2013-11-30,56,52,46,47,40,37,81,66,53,30.18,30.02,9,4,13,0.05
2013-12-1,63,58,51,57,51,42,91,78,61,30.09,29.95,17,7,27,0.13
2013-12-2,69,59,55,58,53,46,92,81,55,30.08,29.92,13,6,23,0.74
2013-12-3,56,48,41,50,38,28,84,70,52,30.19,30.02,28,14,45,0.13
2013-12-4,46,42,40,37,33,26,88,70,52,30.20,30.04,15,5,32,0.24
2013-12-5,61,49,40,34,26,15,64,43,24,30.10,30.01,10,3,17,0.00
2013-12-6,62,50,41,41,27,16,69,40,32,30.13,29.83,7,2,11,0.00
2013-12-7,59,50,45,48,34,21,78,56,38,30.25,29.85,17,7,24,0.00
2013-12-8,52,46,40,22,18,8,42,34,18,30.44,30.22,16,6,27,0.00
2013-12-9,60,48,38,32,18,-9,55,34,6,30.47,30.21,8,2,12,0.00
2013-12-10,58,49,42,39,32,23,75,52,36,30.41,30.08,24,6,39,0.12
2013-12-11,45,40,37,24,17,14,49,40,29,30.50,30.35,18,8,32,0.00
2013-12-12,49,42,33,29,23,14,56,47,30,30.48,30.21,10,3,13,0.00
2013-12-13,50,44,40,37,35,29,81,69,56,30.25,30.15,6,2,11,0.00
2013-12-14,62,48,39,39,34,30,81,60,36,30.40,30.23,4,2,7,0.00
2013-12-15,64,53,46,50,42,38,90,70,43,30.37,30.30,5,2,8,0.00
2013-12-16,58,50,47,47,39,30,90,68,48,30.43,30.30,11,4,21,0.00
2013-12-17,49,46,43,35,31,28,68,56,48,30.46,30.33,13,5,22,0.00
2013-12-18,47,44,42,38,34,31,78,69,63,30.37,30.22,11,5,20,0.00
2013-12-19,52,45,40,40,34,28,85,65,46,30.35,30.22,12,4,17,0.00
2013-12-20,60,46,37,36,32,28,74,59,37,30.50,30.29,4,2,8,0.00
2013-12-21,62,49,40,43,36,28,80,63,37,30.56,30.44,4,2,8,0.00
2013-12-22,62,50,40,34,28,-6,72,45,6,30.56,30.37,11,3,19,0.00
2013-12-23,62,48,39,39,34,26,77,60,35,30.44,30.25,5,2,9,0.00
2013-12-24,53,49,45,44,40,37,80,72,56,30.34,30.18,6,1,10,0.00
2013-12-25,65,55,49,48,44,40,85,68,44,30.27,30.07,9,3,15,0.09
2013-12-26,65,55,48,54,49,44,92,81,54,30.09,29.90,8,2,10,0.08
2013-12-27,57,54,51,54,50,47,92,86,75,29.90,29.78,12,4,19,0.95
2013-12-28,60,53,50,49,45,35,93,74,52,29.93,29.81,11,5,20,0.13
2013-12-29,61,54,49,42,36,30,62,50,38,30.12,29.90,13,6,22,0.00
2013-12-30,64,54,46,41,34,28,70,48,34,30.15,30.04,11,5,17,0.00
2013-12-31,55,48,44,39,35,32,69,59,47,30.22,30.12,15,4,26,0.00
2014-1-1,50,47,44,42,38,32,81,69,55,30.22,30.09,10,3,16,3.04
2014-1-2,56,50,46,42,38,33,81,62,49,30.16,30.05,13,5,17,1.64